Regional Weather Roundup
Issued by NWS

Home | Current Version | Previous Version | Text Only | Print | Product List | Glossary Off
Versions: 1 2 3 4 5 6 7 8 9 10 11 12 13 14 15 16 17 18 19 20 21 22 23 24 25 26 27 28 29 30 31 32 33 34 35 36 37 38 39 40 41 42 43 44 45 46 47 48 49 50

000
ASUS43 KMKX 221721
RWRWI

WISCONSIN REGIONAL WEATHER ROUNDUP
NATIONAL WEATHER SERVICE MILWAUKEE/SULLIVAN WI
1100 AM CST MON DEC 22 2014

NOTE: "FAIR" INDICATES FEW OR NO CLOUDS BELOW 12,000 FEET WITH NO
SIGNIFICANT WEATHER AND/OR OBSTRUCTIONS TO VISIBILITY.

WIZ001-002-006>008-014>016-023>028-221800-
NORTHWEST WISCONSIN

CITY           SKY/WX    TMP DP  RH WIND       PRES   REMARKS
SUPERIOR ARPT  CLOUDY    35  34  96 SE5       29.72F FOG     WCI  31
ASHLAND        CLOUDY    37  33  85 S6        29.75F WCI  32
HAYWARD        CLOUDY    34  32  92 SE9       29.72F FOG     WCI  27
SIREN          CLOUDY    35  34  97 SE9       29.69F FOG     WCI  27
CUMBERLAND     FOG       32  32 100 SE10      29.70F VSB 1   WCI  24
RICE LAKE      CLOUDY    34  33  96 SE10G17   29.73F FOG     WCI  26
CHETEK         CLOUDY    34  33  95 E9        29.72F FOG     WCI  26
LADYSMITH      CLOUDY    35  33  92 SE13      29.76F FOG     WCI  26
EAU CLAIRE     CLOUDY    36  32  85 E7        29.72F FOG     WCI  30
MENOMONIE      CLOUDY    36  34  93 E12       29.72F FOG     WCI  27
NEW RICHMOND   CLOUDY    35  35 100 SE12      29.68F FOG     WCI  26
OSCEOLA        CLOUDY    36  36 100 SE10      29.71S FOG     WCI  28
$$

WIZ003>005-009-010-017-018-221800-
NORTH CENTRAL WISCONSIN

CITY           SKY/WX    TMP DP  RH WIND       PRES   REMARKS
MANITOWISH WTR CLOUDY    32  32 100 SE9       29.77F FOG     WCI  24
ARBOR VITAE    CLOUDY    33  32  95 SE9       29.78F FOG     WCI  25
WOODRUFF       CLOUDY    33  32  95 SE9       29.78F FOG     WCI  25
RHINELANDER    FOG       31  30  96 SE9       29.80F VSB 1   WCI  23
EAGLE RIVER    CLOUDY    32  32  99 SE9       29.79F FOG     WCI  24
LAND O LAKES   CLOUDY    32  32  99 SE7       29.80F FOG     WCI  26
PHILLIPS       CLOUDY    32  32  99 SE8       29.76F FOG     WCI  25
TOMAHAWK       CLOUDY    32  31  95 SE3       29.79F FOG
MEDFORD        CLOUDY    32  31  97 SE9       29.76F FOG     WCI  24
MERRILL        CLOUDY    33  32  98 SE8       29.80F FOG     WCI  25
$$

WIZ029-030-035-036-043>047-221800-
CENTRAL WISCONSIN

CITY           SKY/WX    TMP DP  RH WIND       PRES   REMARKS
WAUSAU         CLOUDY    33  31  92 SE9       29.79F FOG     WCI  25
MOSINEE        CLOUDY    32  32 100 SE10      29.80F FOG     WCI  24
MARSHFIELD     CLOUDY    35  32  88 SE13      29.77F FOG     WCI  26
STEVENS POINT  CLOUDY    32  31  94 SE7       29.81F FOG     WCI  26
WAUPACA        CLOUDY    36  32  85 SE9       29.84F FOG     WCI  29
WAUTOMA        CLOUDY    36  33  88 SE6       29.83F FOG     WCI  31
WISC RAPIDS    CLOUDY    36  30  79 SE9       29.80F WCI  29
CAMP DOUGLAS   NOT AVBL
$$

WIZ011>013-019>022-031-037>040-048>050-221800-
NORTHEAST WISCONSIN

CITY           SKY/WX    TMP DP  RH WIND       PRES   REMARKS
ANTIGO         FOG       31  31 100 SE10      29.81F VSB 1/2 WCI  22
SHAWANO        CLOUDY    37  33  87 S8        29.86F FOG     WCI  31
OCONTO         CLOUDY    36  35  95 SE12      29.89F WCI  28
STURGEON BAY   CLOUDY    36  30  80 SE12G22   29.91F WCI  27
GREEN BAY      CLOUDY    37  33  85 SE13      29.87F FOG     WCI  29
MANITOWOC      CLOUDY    37  33  85 SE14      29.90F WCI  28
APPLETON       NOT AVBL
CLINTONVILLE   CLOUDY    34  32  93 SE7       29.86F FOG     WCI  28
OSHKOSH        CLOUDY    36  32  85 SE8       29.84F FOG     WCI  30
$$

WIZ032>034-041-042-053>061-221800-
SOUTHWEST WISCONSIN

CITY           SKY/WX    TMP DP  RH WIND       PRES   REMARKS
LA CROSSE      CLOUDY    40  32  73 SE8       29.73F WCI  34
SPARTA         CLOUDY    38  32  78 SE8       29.75F WCI  32
VIROQUA        CLOUDY    36  36 100 SE9       29.72F WCI  29
BOSCOBEL       CLOUDY    39  32  76 E6        29.76F WCI  35
PRAIRIE DU CHI CLOUDY    37  32  80 E10       29.73F WCI  30
PLATTEVILLE    CLOUDY    34  32  93 E14       29.75F WCI  25
$$

WIZ056-057-062-063-064-067-068-221800-
SOUTH CENTRAL WISCONSIN

CITY           SKY/WX    TMP DP  RH WIND       PRES   REMARKS
REEDSBURG      CLOUDY    35  32  86 E6        29.77F WCI  30
BARABOO/DELLS  CLOUDY    35  31  84 E7        29.78F FOG     WCI  29
LONE ROCK      CLOUDY    40  31  70 E13       29.78F WCI  32
MINERAL POINT  LGT SNOW  36  32  87 E9        29.75F WCI  29
MADISON        CLOUDY    36  29  75 SE13      29.81F WCI  27
MIDDLETON      CLOUDY    37  31  81 SE9       29.81F WCI  30
WATERTOWN      CLOUDY    34  32  92 SE8G16    29.84F FOG     WCI  28
MONROE         CLOUDY    34  32  93 E10G17    29.78F WCI  26
JANESVILLE     CLOUDY    36  30  80 E12       29.82F HAZE    WCI  27
$$

WIZ051-052-058>065-066-070>072-221800-
SOUTHEAST WISCONSIN

CITY           SKY/WX    TMP DP  RH WIND       PRES   REMARKS
MILWAUKEE      CLOUDY    37  31  78 SE14      29.88F HAZE    WCI  28
WAUKESHA       CLOUDY    36  30  80 E12       29.86F FOG     WCI  27
MILWAUKEE/TIMM CLOUDY    37  30  75 SE10      29.88F HAZE    WCI  30
RACINE         CLOUDY    37  32  82 SE10G18   29.89F HAZE    WCI  30
BURLINGTON     CLOUDY    34  30  86 E10       29.84F WCI  26
KENOSHA        CLOUDY    37  32  82 SE10      29.86F HAZE    WCI  30
FOND DU LAC    CLOUDY    37  32  82 SE10      29.85F WCI  30
SHEBOYGAN      CLOUDY    36  32  85 SE10      29.88F FOG     WCI  28
WEST BEND      CLOUDY    36  32  87 SE12      29.86F WCI  27
JUNEAU         CLOUDY    34  32  92 SE8       29.85F FOG     WCI  27
$$

LSZ147-162-221800-
LAKE SUPERIOR

STATION/POSITION TIME  TEMP    WIND        PRES    WAVE
                       AIR SEA DIR/SP/G            HT/PER
                 (UTC) (F)     (DEG/KT/KT) (MB)    (FT/S)
DEVILS ISLAND    1700   36     140/  7/ 10 1008.2F
PORT WING        1600   37     150/  2/  5 1007.5
SAXON HARBOR     1600   38     180/  2/ 12 1008.1S
$$

LMZ867-665-643>646-221800-
LAKE MICHIGAN

STATION/POSITION TIME  TEMP    WIND        PRES    WAVE
                       AIR SEA DIR/SP/G            HT/PER
                 (UTC) (F)     (DEG/KT/KT) (MB)    (FT/S)
CHAMBERS ISLAND  1600   36     130/  9/ 13 1013.9F
NORTHPORT PIER   1600   35     150/ 14/ 19 1014.2F
SISTER BAY       1628          180/ 13/ 17   N/A
ALGOMA LAKESHORE 1615          200/ 20/ 24   N/A
KEWAUNEE LAKESHO 1700   35     170/ 17/ 21 1012.1F
SHEBOYGAN LAKESH 1700   36 37  130/ 16/ 18 1012.7F
PORT WASHINGTON  1640   37     140/ 13/ 17 1012.9F
MILWAUKEE LAKESH 1700   37     140/ 15/ 17   N/A
KENOSHA   LAKESH 1700   36     140/ 13/ 15 1011.5F
$$

TC  - TEMPERATURE IN CELSIUS
VSB - VISIBILITY IN STATUTE MILES
WCI - WIND CHILL INDEX
HX  - HEAT INDEX



USA.gov is the U.S. government's official web portal to all federal, state and local government web resources and services.